| time (UTC) | temp F | wind direction | speed knots | gust knots | rain 1hr in | rain 24hr in | rain mn in | humidity % | barometer mb |
| 20260507231553 | 58 | 232 | 2.6 | 9.6 | 0.00 | 0.00 | 0.00 | 42 | 1010.5 |
| 20260507231051 | 58 | 187 | 1.7 | 6.1 | 0.00 | 0.00 | 0.00 | 41 | 1010.5 |
| 20260507230547 | 58 | 12 | 3.5 | 3.5 | 0.00 | 0.00 | 0.00 | 43 | 1010.5 |
| 20260507230044 | 58 | 76 | 0.9 | 1.7 | 0.00 | 0.00 | 0.00 | 43 | 1010.6 |
| 20260507225538 | 58 | 207 | 7.0 | 12.2 | 0.00 | 0.00 | 0.00 | 42 | 1010.5 |
| 20260507225035 | 59 | 249 | 4.3 | 6.1 | 0.00 | 0.00 | 0.00 | 45 | 1010.3 |
| 20260507224531 | 59 | 242 | 3.5 | 8.7 | 0.00 | 0.00 | 0.00 | 43 | 1010.1 |
| 20260507224028 | 59 | 333 | 9.6 | 14.8 | 0.00 | 0.00 | 0.00 | 43 | 1010.2 |
| 20260507223524 | 59 | 247 | 4.3 | 5.2 | 0.00 | 0.00 | 0.00 | 43 | 1010.0 |
| 20260507223021 | 59 | 114 | 0.9 | 1.7 | 0.00 | 0.00 | 0.00 | 43 | 1010.0 |
| 20260507222518 | 59 | 213 | 0.9 | 1.7 | 0.00 | 0.00 | 0.00 | 42 | 1010.2 |
| 20260507222014 | 60 | 304 | 0.9 | 0.9 | 0.00 | 0.00 | 0.00 | 43 | 1010.0 |
| 20260507221511 | 60 | 188 | 0.9 | 1.7 | 0.00 | 0.00 | 0.00 | 41 | 1009.9 |
| 20260507221008 | 60 | 303 | 5.2 | 7.0 | 0.00 | 0.00 | 0.00 | 40 | 1009.9 |
| 20260507220505 | 61 | 278 | 2.6 | 3.5 | 0.00 | 0.00 | 0.00 | 42 | 1009.7 |
| 20260507220002 | 61 | 273 | 7.0 | 9.6 | 0.00 | 0.00 | 0.00 | 41 | 1009.6 |
| 20260507215458 | 62 | 338 | 1.7 | 2.6 | 0.00 | 0.00 | 0.00 | 39 | 1009.8 |
| 20260507214956 | 62 | 298 | 5.2 | 7.8 | 0.00 | 0.00 | 0.00 | 37 | 1009.5 |
| 20260507214453 | 63 | 22 | 1.7 | 3.5 | 0.00 | 0.00 | 0.00 | 45 | 1009.6 |
| 20260507213949 | 61 | 35 | 0.0 | 0.0 | 0.00 | 0.00 | 0.00 | 43 | 1009.5 |
| 20260507213445 | 61 | 84 | 1.7 | 3.5 | 0.00 | 0.00 | 0.00 | 38 | 1009.4 |
| 20260507212943 | 62 | 337 | 5.2 | 7.0 | 0.00 | 0.00 | 0.00 | 43 | 1009.4 |
| 20260507212438 | 62 | 337 | 5.2 | 7.0 | 0.00 | 0.00 | 0.00 | 43 | 1009.6 |
| 20260507211936 | 61 | 313 | 7.8 | 9.6 | 0.00 | 0.00 | 0.00 | 44 | 1009.6 |
| 20260507211432 | 61 | 345 | 5.2 | 6.1 | 0.00 | 0.00 | 0.00 | 41 | 1009.4 |
| 20260507210929 | 62 | 354 | 5.2 | 7.8 | 0.00 | 0.00 | 0.00 | 39 | 1009.3 |
| 20260507210426 | 63 | 338 | 8.7 | 9.6 | 0.00 | 0.00 | 0.00 | 40 | 1009.4 |
| 20260507205923 | 62 | 171 | 0.9 | 0.9 | 0.00 | 0.00 | 0.00 | 44 | 1009.3 |
| 20260507205420 | 62 | 331 | 3.5 | 5.2 | 0.00 | 0.00 | 0.00 | 43 | 1009.4 |
| 20260507204916 | 63 | 306 | 2.6 | 3.5 | 0.00 | 0.00 | 0.00 | 40 | 1009.3 |
| 20260507204412 | 63 | 302 | 5.2 | 6.1 | 0.00 | 0.00 | 0.00 | 39 | 1009.5 |
| 20260507203910 | 62 | 300 | 4.3 | 6.1 | 0.00 | 0.00 | 0.00 | 41 | 1009.5 |
| 20260507203408 | 61 | 316 | 5.2 | 7.0 | 0.00 | 0.00 | 0.00 | 41 | 1009.2 |
| 20260507202904 | 62 | 300 | 7.0 | 11.3 | 0.00 | 0.00 | 0.00 | 41 | 1009.4 |
| 20260507202400 | 64 | 314 | 7.0 | 8.7 | 0.00 | 0.00 | 0.00 | 41 | 1009.5 |
| 20260507201856 | 64 | 282 | 4.3 | 6.1 | 0.00 | 0.00 | 0.00 | 44 | 1009.7 |
| 20260507201351 | 63 | 316 | 9.6 | 13.0 | 0.00 | 0.00 | 0.00 | 42 | 1009.5 |
| 20260507200848 | 63 | 329 | 8.7 | 11.3 | 0.00 | 0.00 | 0.00 | 42 | 1009.3 |
| 20260507200344 | 63 | 22 | 2.6 | 3.5 | 0.00 | 0.00 | 0.00 | 42 | 1009.4 |
| 20260507195840 | 64 | 161 | 1.7 | 2.6 | 0.00 | 0.00 | 0.00 | 45 | 1009.4 |
| 20260507195338 | 62 | 317 | 1.7 | 2.6 | 0.00 | 0.00 | 0.00 | 47 | 1009.3 |
| 20260507194835 | 62 | 302 | 4.3 | 7.8 | 0.00 | 0.00 | 0.00 | 45 | 1009.4 |
| 20260507194331 | 62 | 304 | 3.5 | 5.2 | 0.00 | 0.00 | 0.00 | 46 | 1009.5 |
| 20260507193828 | 61 | 168 | 0.9 | 0.9 | 0.00 | 0.00 | 0.00 | 42 | 1009.7 |
| 20260507193325 | 61 | 44 | 1.7 | 2.6 | 0.00 | 0.00 | 0.00 | 44 | 1009.7 |
| 20260507192820 | 62 | 316 | 2.6 | 6.1 | 0.00 | 0.00 | 0.00 | 49 | 1009.7 |
| 20260507192318 | 63 | 321 | 0.9 | 6.1 | 0.00 | 0.00 | 0.00 | 44 | 1009.7 |
| 20260507191814 | 64 | 72 | 0.9 | 3.5 | 0.00 | 0.00 | 0.00 | 48 | 1009.6 |
| 20260507191310 | 64 | 295 | 0.0 | 1.7 | 0.00 | 0.00 | 0.00 | 45 | 1009.9 |
| 20260507190807 | 64 | 321 | 0.9 | 2.6 | 0.00 | 0.00 | 0.00 | 42 | 1009.9 |
| 20260507190306 | 64 | 312 | 1.7 | 7.0 | 0.00 | 0.00 | 0.00 | 51 | 1009.8 |
| 20260507185804 | 64 | 316 | 2.6 | 2.6 | 0.00 | 0.00 | 0.00 | 44 | 1009.7 |
| 20260507185300 | 61 | 198 | 2.6 | 5.2 | 0.00 | 0.00 | 0.00 | 48 | 1010.0 |
| 20260507184758 | 62 | 327 | 1.7 | 2.6 | 0.00 | 0.00 | 0.00 | 48 | 1010.0 |
| 20260507184256 | 65 | 322 | 3.5 | 5.2 | 0.00 | 0.00 | 0.00 | 47 | 1010.1 |
| 20260507183752 | 64 | 90 | 1.7 | 5.2 | 0.00 | 0.00 | 0.00 | 44 | 1010.2 |
| 20260507183250 | 63 | 291 | 5.2 | 11.3 | 0.00 | 0.00 | 0.00 | 48 | 1010.2 |
| 20260507182747 | 64 | 299 | 4.3 | 5.2 | 0.00 | 0.00 | 0.00 | 46 | 1010.1 |
| 20260507182242 | 64 | 108 | 0.9 | 0.9 | 0.00 | 0.00 | 0.00 | 47 | 1010.1 |
| 20260507181739 | 64 | 310 | 0.0 | 1.7 | 0.00 | 0.00 | 0.00 | 51 | 1010.2 |
| 20260507181235 | 62 | 59 | 0.9 | 1.7 | 0.00 | 0.00 | 0.00 | 48 | 1009.9 |
| 20260507180732 | 59 | 66 | 1.7 | 1.7 | 0.00 | 0.00 | 0.00 | 52 | 1010.3 |
| 20260507180229 | 58 | 51 | 4.3 | 6.1 | 0.00 | 0.00 | 0.00 | 54 | 1010.3 |
| 20260507175724 | 58 | 66 | 4.3 | 5.2 | 0.00 | 0.00 | 0.00 | 54 | 1010.4 |
| 20260507175221 | 58 | 80 | 4.3 | 6.1 | 0.00 | 0.00 | 0.00 | 54 | 1010.6 |
| 20260507174719 | 59 | 321 | 6.1 | 7.0 | 0.00 | 0.00 | 0.00 | 55 | 1010.5 |
| 20260507174217 | 60 | 356 | 3.5 | 5.2 | 0.00 | 0.00 | 0.00 | 54 | 1010.7 |
| 20260507173715 | 60 | 346 | 0.0 | 0.9 | 0.00 | 0.00 | 0.00 | 53 | 1010.7 |
| 20260507173211 | 61 | 340 | 2.6 | 3.5 | 0.00 | 0.00 | 0.00 | 53 | 1011.1 |
| 20260507172708 | 0 | 0.0 | 0.0 | 0.00 | 0.00 | 0.00 | 1011.3 | ||
| 20260507172204 | 59 | 296 | 5.2 | 7.0 | 0.00 | 0.00 | 0.00 | 54 | 1011.0 |
| 20260507171658 | 59 | 296 | 5.2 | 7.0 | 0.00 | 0.00 | 0.00 | 54 | 1011.1 |
| 20260507171155 | 59 | 355 | 3.5 | 3.5 | 0.00 | 0.00 | 0.00 | 57 | 1011.3 |
| 20260507170652 | 60 | 346 | 7.0 | 7.8 | 0.00 | 0.00 | 0.00 | 54 | 1011.1 |
| 20260507170150 | 60 | 346 | 7.0 | 7.8 | 0.00 | 0.00 | 0.00 | 54 | 1011.3 |
| 20260507165645 | 61 | 302 | 1.7 | 2.6 | 0.00 | 0.00 | 0.00 | 52 | 1011.2 |
| 20260507165142 | 61 | 302 | 1.7 | 2.6 | 0.00 | 0.00 | 0.00 | 52 | 1011.4 |
| 20260507164637 | 60 | 333 | 6.1 | 7.0 | 0.00 | 0.00 | 0.00 | 60 | 1011.4 |
| 20260507164135 | 0 | 0.0 | 0.0 | 0.00 | 0.00 | 0.00 | 1011.7 | ||
| 20260507163632 | 0 | 0.0 | 0.0 | 0.00 | 0.00 | 0.00 | 1011.6 | ||
| 20260507163130 | 58 | 292 | 1.7 | 1.7 | 0.00 | 0.00 | 0.00 | 61 | 1011.8 |
| 20260507162626 | 58 | 292 | 1.7 | 1.7 | 0.00 | 0.00 | 0.00 | 61 | 1011.8 |
| 20260507162122 | 58 | 156 | 0.9 | 0.9 | 0.00 | 0.00 | 0.00 | 62 | 1012.1 |
| 20260507161618 | 56 | 337 | 5.2 | 6.1 | 0.00 | 0.00 | 0.00 | 61 | 1012.1 |
| 20260507161115 | 57 | 300 | 7.8 | 8.7 | 0.00 | 0.00 | 0.00 | 59 | 1012.0 |
| 20260507160611 | 0 | 0.0 | 0.0 | 0.00 | 0.00 | 0.00 | 1011.9 | ||
| 20260507160108 | 55 | 283 | 5.2 | 6.1 | 0.00 | 0.00 | 0.00 | 62 | 1012.4 |
| 20260507155603 | 55 | 283 | 5.2 | 6.1 | 0.00 | 0.00 | 0.00 | 62 | 1012.4 |
| 20260507155100 | 55 | 48 | 3.5 | 3.5 | 0.00 | 0.00 | 0.00 | 61 | 1012.3 |
| 20260507154557 | 55 | 348 | 4.3 | 5.2 | 0.00 | 0.00 | 0.00 | 65 | 1012.3 |
| 20260507154054 | 56 | 351 | 4.3 | 6.1 | 0.00 | 0.00 | 0.00 | 61 | 1012.3 |
| 20260507153551 | 57 | 300 | 3.5 | 3.5 | 0.00 | 0.00 | 0.00 | 58 | 1012.4 |
| 20260507153047 | 57 | 300 | 3.5 | 3.5 | 0.00 | 0.00 | 0.00 | 58 | 1012.6 |
| 20260507152543 | 0 | 0.0 | 0.0 | 0.00 | 0.00 | 0.00 | 1012.5 | ||
| 20260507152040 | 55 | 319 | 6.1 | 7.8 | 0.00 | 0.00 | 0.00 | 59 | 1012.6 |
| 20260507151536 | 55 | 319 | 6.1 | 7.8 | 0.00 | 0.00 | 0.00 | 59 | 1012.9 |
| 20260507151033 | 55 | 314 | 7.8 | 9.6 | 0.00 | 0.00 | 0.00 | 59 | 1012.9 |
| 20260507150530 | 55 | 314 | 7.8 | 9.6 | 0.00 | 0.00 | 0.00 | 59 | 1013.0 |
| 20260507150027 | 55 | 320 | 3.5 | 5.2 | 0.00 | 0.00 | 0.00 | 62 | 1012.7 |
| 20260507145522 | 55 | 233 | 2.6 | 3.5 | 0.00 | 0.00 | 0.00 | 59 | 1012.9 |
| 20260507145020 | 54 | 354 | 5.2 | 7.0 | 0.00 | 0.00 | 0.00 | 58 | 1013.2 |
| 20260507144516 | 54 | 274 | 3.5 | 5.2 | 0.00 | 0.00 | 0.00 | 63 | 1013.2 |
| 20260507144014 | 55 | 282 | 0.9 | 1.7 | 0.00 | 0.00 | 0.00 | 62 | 1013.1 |
| 20260507143511 | 54 | 344 | 4.3 | 6.1 | 0.00 | 0.00 | 0.00 | 63 | 1013.3 |
| 20260507143008 | 54 | 319 | 2.6 | 2.6 | 0.00 | 0.00 | 0.00 | 65 | 1013.4 |
| 20260507142503 | 53 | 315 | 2.6 | 2.6 | 0.00 | 0.00 | 0.00 | 65 | 1013.4 |
| 20260507142000 | 53 | 178 | 0.9 | 1.7 | 0.00 | 0.00 | 0.00 | 65 | 1013.5 |
| 20260507141456 | 52 | 239 | 0.9 | 1.7 | 0.00 | 0.00 | 0.00 | 69 | 1013.5 |
| 20260507140953 | 52 | 239 | 0.9 | 1.7 | 0.00 | 0.00 | 0.00 | 69 | 1013.8 |
| 20260507140450 | 51 | 357 | 2.6 | 2.6 | 0.00 | 0.00 | 0.00 | 69 | 1013.6 |
| 20260507135947 | 52 | 292 | 0.9 | 0.9 | 0.00 | 0.00 | 0.00 | 69 | 1013.6 |
| 20260507135444 | 0 | 0.0 | 0.0 | 0.00 | 0.00 | 0.00 | 1013.8 | ||
| 20260507134941 | 0 | 0.0 | 0.0 | 0.00 | 0.00 | 0.00 | 1013.7 | ||
| 20260507134438 | 0 | 0.0 | 0.0 | 0.00 | 0.00 | 0.00 | 1013.7 | ||
| 20260507133934 | 0 | 0.0 | 0.0 | 0.00 | 0.00 | 0.00 | 1013.9 | ||
| 20260507133430 | 0 | 0.0 | 0.0 | 0.00 | 0.00 | 0.00 | 1013.9 | ||
| 20260507132929 | 50 | 210 | 0.9 | 0.9 | 0.00 | 0.00 | 0.00 | 76 | 1014.1 |
| 20260507132424 | 50 | 210 | 0.9 | 0.9 | 0.00 | 0.00 | 0.00 | 76 | 1014.1 |
| 20260507131921 | 50 | 236 | 0.0 | 0.9 | 0.00 | 0.00 | 0.00 | 79 | 1014.1 |
| 20260507131418 | 50 | 236 | 0.0 | 0.9 | 0.00 | 0.00 | 0.00 | 79 | 1014.2 |
| 20260507130915 | 49 | 294 | 0.0 | 0.0 | 0.00 | 0.00 | 0.00 | 78 | 1014.3 |
| 20260507130412 | 0 | 0.0 | 0.0 | 0.00 | 0.00 | 0.00 | 1014.0 | ||
| 20260507125911 | 0 | 0.0 | 0.0 | 0.00 | 0.00 | 0.00 | 1014.1 | ||
| 20260507125408 | 0 | 0.0 | 0.0 | 0.00 | 0.00 | 0.00 | 1014.1 | ||
| 20260507124906 | 49 | 115 | 0.9 | 0.9 | 0.00 | 0.00 | 0.00 | 77 | 1014.0 |
| 20260507124401 | 49 | 10 | 1.7 | 1.7 | 0.00 | 0.00 | 0.00 | 77 | 1014.1 |
| 20260507123900 | 49 | 282 | 0.0 | 0.9 | 0.00 | 0.00 | 0.00 | 77 | 1014.1 |
| 20260507123357 | 49 | 282 | 0.0 | 0.9 | 0.00 | 0.00 | 0.00 | 77 | 1013.8 |
| 20260507122853 | 49 | 306 | 0.0 | 0.0 | 0.00 | 0.00 | 0.00 | 76 | 1014.1 |
| 20260507122349 | 49 | 349 | 0.9 | 0.9 | 0.00 | 0.00 | 0.00 | 76 | 1013.9 |
| 20260507121845 | 49 | 217 | 1.7 | 1.7 | 0.00 | 0.00 | 0.00 | 77 | 1013.7 |
| 20260507121341 | 49 | 7 | 1.7 | 1.7 | 0.00 | 0.00 | 0.00 | 77 | 1013.7 |
| 20260507120837 | 49 | 313 | 0.9 | 1.7 | 0.00 | 0.00 | 0.00 | 77 | 1013.9 |
| 20260507120334 | 49 | 15 | 1.7 | 2.6 | 0.00 | 0.00 | 0.00 | 82 | 1013.9 |
| 20260507115830 | 49 | 73 | 0.0 | 0.0 | 0.00 | 0.00 | 0.00 | 80 | 1013.8 |
| 20260507115326 | 49 | 38 | 1.7 | 2.6 | 0.00 | 0.00 | 0.00 | 81 | 1014.1 |
| 20260507114822 | 49 | 25 | 1.7 | 2.6 | 0.00 | 0.00 | 0.00 | 83 | 1013.6 |
| 20260507114319 | 49 | 248 | 0.0 | 0.9 | 0.00 | 0.00 | 0.00 | 83 | 1013.5 |
| 20260507113817 | 49 | 155 | 0.9 | 0.9 | 0.00 | 0.00 | 0.00 | 83 | 1013.6 |
| 20260507113313 | 49 | 88 | 0.9 | 0.9 | 0.00 | 0.00 | 0.00 | 82 | 1013.6 |
| 20260507112811 | 49 | 61 | 0.0 | 0.9 | 0.00 | 0.00 | 0.00 | 82 | 1013.5 |
| 20260507112308 | 49 | 340 | 0.9 | 0.9 | 0.00 | 0.00 | 0.00 | 81 | 1013.6 |
| 20260507111806 | 49 | 96 | 0.0 | 0.0 | 0.00 | 0.00 | 0.00 | 82 | 1013.5 |
| 20260507111302 | 49 | 96 | 0.0 | 0.0 | 0.00 | 0.00 | 0.00 | 82 | 1013.5 |
| 20260507110758 | 49 | 309 | 0.0 | 0.9 | 0.00 | 0.00 | 0.00 | 82 | 1013.4 |
| 20260507110255 | 49 | 327 | 0.9 | 3.5 | 0.00 | 0.00 | 0.00 | 80 | 1013.2 |
| 20260507105752 | 49 | 57 | 2.6 | 2.6 | 0.00 | 0.00 | 0.00 | 81 | 1013.2 |
| 20260507105247 | 49 | 57 | 2.6 | 2.6 | 0.00 | 0.00 | 0.00 | 81 | 1013.3 |
| 20260507104745 | 49 | 359 | 0.0 | 0.0 | 0.00 | 0.00 | 0.00 | 82 | 1013.0 |
| 20260507104242 | 49 | 316 | 5.2 | 6.1 | 0.00 | 0.00 | 0.00 | 81 | 1013.4 |
| 20260507103737 | 48 | 1 | 0.0 | 0.0 | 0.00 | 0.00 | 0.00 | 83 | 1013.4 |
| 20260507103234 | 48 | 101 | 0.0 | 0.0 | 0.00 | 0.00 | 0.00 | 83 | 1013.0 |
| 20260507102730 | 48 | 31 | 0.0 | 0.0 | 0.00 | 0.00 | 0.00 | 83 | 1012.9 |
| 20260507102227 | 48 | 103 | 0.0 | 0.0 | 0.00 | 0.00 | 0.00 | 83 | 1012.9 |
| 20260507101723 | 49 | 95 | 0.0 | 0.0 | 0.00 | 0.00 | 0.00 | 83 | 1012.9 |
| 20260507101218 | 49 | 87 | 0.9 | 0.9 | 0.00 | 0.00 | 0.00 | 82 | 1012.9 |
| 20260507100716 | 0 | 0.0 | 0.0 | 0.00 | 0.00 | 0.00 | 1012.7 | ||
| 20260507100214 | 0 | 0.0 | 0.0 | 0.00 | 0.00 | 0.00 | 1013.0 | ||
| 20260507095712 | 0 | 0.0 | 0.0 | 0.00 | 0.00 | 0.00 | 1012.6 | ||
| 20260507095208 | 0 | 0.0 | 0.0 | 0.00 | 0.00 | 0.00 | 1012.4 | ||
| 20260507094705 | 0 | 0.0 | 0.0 | 0.00 | 0.00 | 0.00 | 1012.5 | ||
| 20260507094202 | 49 | 3 | 2.6 | 2.6 | 0.00 | 0.00 | 0.00 | 80 | 1012.9 |
| 20260507093659 | 49 | 3 | 2.6 | 2.6 | 0.00 | 0.00 | 0.00 | 80 | 1012.9 |
| 20260507093158 | 49 | 215 | 0.9 | 0.9 | 0.00 | 0.00 | 0.00 | 80 | 1012.7 |
| 20260507092654 | 49 | 83 | 3.5 | 5.2 | 0.00 | 0.00 | 0.00 | 79 | 1012.9 |
| 20260507092151 | 49 | 88 | 0.9 | 0.9 | 0.00 | 0.00 | 0.00 | 79 | 1012.6 |
| 20260507091647 | 49 | 338 | 1.7 | 2.6 | 0.00 | 0.00 | 0.00 | 81 | 1012.6 |
| 20260507091144 | 49 | 264 | 0.0 | 0.0 | 0.00 | 0.00 | 0.00 | 81 | 1012.6 |
| 20260507090639 | 49 | 148 | 0.0 | 0.9 | 0.00 | 0.00 | 0.00 | 81 | 1012.4 |
| 20260507090137 | 49 | 210 | 0.0 | 5.2 | 0.00 | 0.00 | 0.00 | 81 | 1012.5 |
| 20260507085634 | 49 | 327 | 0.0 | 0.9 | 0.00 | 0.00 | 0.00 | 81 | 1012.6 |
| 20260507085130 | 49 | 213 | 0.9 | 1.7 | 0.00 | 0.00 | 0.00 | 82 | 1012.3 |
| 20260507084627 | 49 | 254 | 1.7 | 5.2 | 0.00 | 0.00 | 0.00 | 80 | 1012.5 |
| 20260507084124 | 49 | 318 | 0.9 | 0.9 | 0.00 | 0.00 | 0.00 | 79 | 1012.6 |
| 20260507083620 | 49 | 358 | 1.7 | 3.5 | 0.00 | 0.00 | 0.00 | 79 | 1012.5 |
| 20260507083118 | 49 | 181 | 0.0 | 0.9 | 0.00 | 0.00 | 0.00 | 80 | 1012.5 |
| 20260507082613 | 49 | 157 | 0.0 | 0.9 | 0.00 | 0.00 | 0.00 | 81 | 1012.5 |
| 20260507082104 | 49 | 325 | 2.6 | 2.6 | 0.00 | 0.00 | 0.00 | 80 | 1012.6 |
| 20260507081601 | 0 | 0.0 | 0.0 | 0.00 | 0.00 | 0.00 | 1012.9 | ||
| 20260507081058 | 0 | 0.0 | 0.0 | 0.00 | 0.00 | 0.00 | 1012.6 | ||
| 20260507080554 | 50 | 323 | 0.9 | 1.7 | 0.00 | 0.00 | 0.00 | 79 | 1012.7 |
| 20260507080050 | 50 | 323 | 0.9 | 1.7 | 0.00 | 0.00 | 0.00 | 79 | 1013.0 |
| 20260507075545 | 50 | 72 | 1.7 | 2.6 | 0.00 | 0.00 | 0.00 | 78 | 1013.0 |
| 20260507075042 | 50 | 288 | 1.7 | 1.7 | 0.00 | 0.00 | 0.00 | 78 | 1012.9 |
| 20260507074539 | 50 | 339 | 0.9 | 0.9 | 0.00 | 0.00 | 0.00 | 80 | 1012.5 |
| 20260507074037 | 50 | 144 | 0.0 | 0.0 | 0.00 | 0.00 | 0.00 | 80 | 1012.4 |
| 20260507073533 | 50 | 99 | 0.9 | 0.9 | 0.00 | 0.00 | 0.00 | 81 | 1012.5 |
| 20260507073029 | 49 | 219 | 1.7 | 1.7 | 0.00 | 0.00 | 0.00 | 81 | 1012.5 |
| 20260507072527 | 49 | 117 | 0.0 | 0.0 | 0.00 | 0.00 | 0.00 | 82 | 1012.3 |
| 20260507072024 | 50 | 32 | 0.0 | 0.0 | 0.00 | 0.00 | 0.00 | 82 | 1012.4 |
| 20260507071521 | 50 | 101 | 0.9 | 0.9 | 0.00 | 0.00 | 0.00 | 80 | 1012.4 |
| 20260507071018 | 50 | 68 | 0.0 | 0.0 | 0.00 | 0.00 | 0.00 | 81 | 1012.4 |
| 20260507070515 | 49 | 7 | 0.9 | 1.7 | 0.00 | 0.00 | 0.00 | 81 | 1012.7 |
| 20260507070013 | 50 | 317 | 0.0 | 0.0 | 0.00 | 0.00 | 0.00 | 83 | 1012.4 |
| 20260507065508 | 50 | 317 | 0.0 | 0.0 | 0.00 | 0.00 | 0.00 | 83 | 1012.5 |
| 20260507065006 | 49 | 48 | 1.7 | 1.7 | 0.00 | 0.00 | 0.00 | 83 | 1012.5 |
| 20260507064503 | 49 | 286 | 0.0 | 0.0 | 0.00 | 0.00 | 0.00 | 83 | 1012.7 |
| 20260507064001 | 49 | 272 | 1.7 | 2.6 | 0.00 | 0.00 | 0.00 | 85 | 1013.0 |
| 20260507063458 | 49 | 39 | 0.0 | 0.9 | 0.00 | 0.00 | 0.00 | 86 | 1012.5 |
| 20260507062955 | 49 | 16 | 2.6 | 3.5 | 0.00 | 0.00 | 0.00 | 86 | 1012.9 |
| 20260507062452 | 49 | 32 | 0.9 | 3.5 | 0.00 | 0.00 | 0.00 | 86 | 1012.7 |
| 20260507061949 | 49 | 318 | 3.5 | 6.1 | 0.00 | 0.00 | 0.00 | 86 | 1012.9 |
| 20260507061447 | 50 | 29 | 2.6 | 5.2 | 0.00 | 0.00 | 0.00 | 86 | 1013.0 |
| 20260507060946 | 50 | 5 | 3.5 | 5.2 | 0.00 | 0.00 | 0.00 | 86 | 1013.0 |
| 20260507060442 | 50 | 349 | 0.9 | 2.6 | 0.00 | 0.00 | 0.00 | 86 | 1013.1 |
| 20260507055939 | 50 | 51 | 2.6 | 3.5 | 0.00 | 0.00 | 0.00 | 87 | 1013.3 |
| 20260507055434 | 50 | 18 | 1.7 | 2.6 | 0.00 | 0.00 | 0.00 | 87 | 1013.0 |
| 20260507054931 | 51 | 18 | 0.0 | 0.9 | 0.00 | 0.00 | 0.00 | 87 | 1013.3 |
| 20260507054427 | 51 | 5 | 0.9 | 1.7 | 0.00 | 0.00 | 0.00 | 87 | 1013.3 |
| 20260507053924 | 51 | 21 | 1.7 | 1.7 | 0.00 | 0.00 | 0.00 | 87 | 1013.4 |
| 20260507053422 | 51 | 61 | 2.6 | 3.5 | 0.00 | 0.00 | 0.00 | 86 | 1013.1 |
| 20260507052921 | 51 | 37 | 1.7 | 2.6 | 0.00 | 0.00 | 0.00 | 86 | 1013.3 |
| 20260507052418 | 51 | 21 | 2.6 | 3.5 | 0.00 | 0.00 | 0.00 | 85 | 1013.0 |
| 20260507051914 | 51 | 21 | 2.6 | 3.5 | 0.00 | 0.00 | 0.00 | 85 | 1012.7 |
| 20260507051412 | 52 | 358 | 3.5 | 6.1 | 0.00 | 0.00 | 0.00 | 86 | 1013.0 |
| 20260507050910 | 52 | 358 | 3.5 | 6.1 | 0.00 | 0.00 | 0.00 | 86 | 1013.0 |
| 20260507050406 | 52 | 348 | 4.3 | 7.0 | 0.00 | 0.00 | 0.00 | 85 | 1012.6 |
| 20260507045903 | 52 | 28 | 4.3 | 7.0 | 0.00 | 0.00 | 0.00 | 87 | 1012.5 |
| 20260507045359 | 52 | 353 | 0.9 | 1.7 | 0.00 | 0.00 | 0.00 | 87 | 1012.6 |
| 20260507044856 | 52 | 47 | 2.6 | 6.1 | 0.00 | 0.00 | 0.00 | 86 | 1012.4 |
| 20260507044352 | 53 | 64 | 2.6 | 7.8 | 0.00 | 0.00 | 0.00 | 86 | 1012.5 |
| 20260507043848 | 53 | 9 | 1.7 | 2.6 | 0.00 | 0.00 | 0.00 | 86 | 1012.7 |
| 20260507043345 | 53 | 31 | 4.3 | 6.1 | 0.00 | 0.00 | 0.00 | 87 | 1012.9 |
| 20260507042841 | 53 | 318 | 3.5 | 8.7 | 0.00 | 0.00 | 0.00 | 86 | 1012.7 |
| 20260507042337 | 53 | 352 | 3.5 | 3.5 | 0.00 | 0.00 | 0.00 | 87 | 1012.3 |
| 20260507041829 | 54 | 351 | 1.7 | 1.7 | 0.00 | 0.00 | 0.00 | 87 | 1012.3 |
| 20260507041326 | 54 | 23 | 1.7 | 2.6 | 0.00 | 0.00 | 0.00 | 87 | 1012.0 |
| 20260507040823 | 54 | 335 | 3.5 | 5.2 | 0.00 | 0.00 | 0.00 | 86 | 1012.2 |
| 20260507040319 | 54 | 36 | 3.5 | 5.2 | 0.00 | 0.00 | 0.00 | 87 | 1011.5 |
| 20260507035815 | 54 | 47 | 1.7 | 2.6 | 0.00 | 0.00 | 0.00 | 86 | 1011.9 |
| 20260507035310 | 54 | 341 | 1.7 | 2.6 | 0.00 | 0.00 | 0.00 | 86 | 1012.7 |
| 20260507034809 | 55 | 334 | 3.5 | 6.1 | 0.00 | 0.00 | 0.00 | 86 | 1012.7 |
| 20260507034305 | 55 | 350 | 1.7 | 1.7 | 0.00 | 0.00 | 0.00 | 86 | 1012.2 |
| 20260507033803 | 55 | 329 | 1.7 | 1.7 | 0.00 | 0.00 | 0.00 | 85 | 1011.9 |
| 20260507033301 | 55 | 349 | 1.7 | 3.5 | 0.00 | 0.00 | 0.00 | 86 | 1012.3 |
| 20260507032757 | 55 | 308 | 1.7 | 1.7 | 0.00 | 0.00 | 0.00 | 86 | 1012.3 |
| 20260507032253 | 55 | 353 | 2.6 | 2.6 | 0.00 | 0.00 | 0.00 | 86 | 1012.5 |
| 20260507031749 | 55 | 321 | 0.0 | 1.7 | 0.00 | 0.00 | 0.00 | 85 | 1012.5 |
| 20260507031247 | 55 | 79 | 1.7 | 2.6 | 0.00 | 0.00 | 0.00 | 85 | 1012.5 |
| 20260507030743 | 56 | 17 | 1.7 | 6.1 | 0.00 | 0.00 | 0.00 | 85 | 1012.7 |
| 20260507030241 | 56 | 312 | 7.0 | 9.6 | 0.00 | 0.00 | 0.00 | 84 | 1013.0 |
| 20260507025738 | 55 | 331 | 3.5 | 5.2 | 0.00 | 0.00 | 0.00 | 86 | 1013.0 |
| 20260507025235 | 55 | 323 | 1.7 | 1.7 | 0.00 | 0.00 | 0.00 | 87 | 1011.8 |
| 20260507024733 | 55 | 294 | 1.7 | 2.6 | 0.00 | 0.00 | 0.00 | 86 | 1011.8 |
| 20260507024230 | 56 | 332 | 0.9 | 1.7 | 0.00 | 0.00 | 0.00 | 86 | 1011.7 |
| 20260507023725 | 56 | 116 | 0.0 | 1.7 | 0.00 | 0.00 | 0.00 | 86 | 1012.0 |
| 20260507023222 | 56 | 88 | 2.6 | 3.5 | 0.00 | 0.00 | 0.00 | 85 | 1012.2 |
| 20260507022720 | 56 | 310 | 3.5 | 5.2 | 0.00 | 0.00 | 0.00 | 85 | 1012.5 |
| 20260507022215 | 57 | 355 | 1.7 | 2.6 | 0.00 | 0.00 | 0.00 | 86 | 1012.6 |
| 20260507021712 | 57 | 314 | 2.6 | 3.5 | 0.00 | 0.00 | 0.00 | 86 | 1012.6 |
| 20260507021207 | 57 | 358 | 6.1 | 7.8 | 0.00 | 0.00 | 0.00 | 87 | 1012.4 |
| 20260507020706 | 57 | 10 | 4.3 | 5.2 | 0.00 | 0.00 | 0.00 | 87 | 1012.0 |
| 20260507020202 | 57 | 318 | 0.9 | 5.2 | 0.00 | 0.00 | 0.00 | 86 | 1011.8 |
| 20260507015701 | 57 | 113 | 0.0 | 0.9 | 0.00 | 0.00 | 0.00 | 86 | 1011.4 |
| 20260507015158 | 57 | 49 | 0.0 | 1.7 | 0.00 | 0.00 | 0.00 | 86 | 1011.2 |
| 20260507014654 | 57 | 185 | 0.0 | 0.0 | 0.00 | 0.00 | 0.00 | 86 | 1011.6 |
| 20260507014150 | 58 | 208 | 0.9 | 3.5 | 0.00 | 0.00 | 0.00 | 86 | 1011.8 |
| 20260507013647 | 58 | 339 | 0.9 | 5.2 | 0.00 | 0.00 | 0.00 | 85 | 1011.8 |
| 20260507013144 | 58 | 317 | 2.6 | 3.5 | 0.00 | 0.00 | 0.00 | 85 | 1012.0 |
| 20260507012642 | 58 | 312 | 2.6 | 3.5 | 0.00 | 0.00 | 0.00 | 85 | 1011.7 |
| 20260507012136 | 57 | 352 | 1.7 | 1.7 | 0.00 | 0.00 | 0.00 | 90 | 1011.7 |
| 20260507011635 | 57 | 315 | 0.9 | 2.6 | 0.00 | 0.00 | 0.00 | 92 | 1011.5 |
| 20260507011131 | 57 | 202 | 0.0 | 0.0 | 0.00 | 0.00 | 0.00 | 92 | 1010.7 |
| 20260507010625 | 58 | 138 | 0.0 | 0.9 | 0.00 | 0.00 | 0.00 | 92 | 1011.0 |
| 20260507010121 | 58 | 132 | 0.9 | 0.9 | 0.00 | 0.00 | 0.00 | 92 | 1011.3 |
| 20260507005619 | 58 | 169 | 0.0 | 0.9 | 0.00 | 0.00 | 0.00 | 91 | 1011.3 |
| 20260507005115 | 58 | 198 | 0.9 | 1.7 | 0.00 | 0.00 | 0.00 | 90 | 1011.4 |
| 20260507004612 | 59 | 142 | 0.0 | 0.0 | 0.00 | 0.00 | 0.00 | 89 | 1011.3 |
| 20260507004109 | 59 | 222 | 0.9 | 0.9 | 0.00 | 0.00 | 0.00 | 86 | 1011.6 |
| 20260507003606 | 59 | 171 | 0.0 | 0.0 | 0.00 | 0.00 | 0.00 | 87 | 1011.7 |
| 20260507003100 | 60 | 39 | 0.0 | 0.9 | 0.00 | 0.00 | 0.00 | 85 | 1011.7 |
| 20260507002558 | 59 | 83 | 0.0 | 0.0 | 0.00 | 0.00 | 0.00 | 86 | 1011.7 |
| 20260507002053 | 60 | 105 | 0.0 | 0.0 | 0.00 | 0.00 | 0.00 | 86 | 1011.6 |
| 20260507001550 | 60 | 10 | 0.0 | 0.0 | 0.00 | 0.00 | 0.00 | 83 | 1011.5 |
| 20260507001048 | 60 | 336 | 0.0 | 0.0 | 0.00 | 0.00 | 0.00 | 84 | 1011.4 |
| 20260507000543 | 60 | 336 | 0.0 | 0.0 | 0.00 | 0.00 | 0.00 | 84 | 1011.4 |
| 20260507000039 | 60 | 316 | 0.0 | 1.7 | 0.00 | 0.00 | 0.00 | 83 | 1011.6 |
| 20260506235537 | 60 | 321 | 1.7 | 1.7 | 0.00 | 0.00 | 0.00 | 82 | 1011.4 |
| 20260506235032 | 60 | 35 | 2.6 | 3.5 | 0.00 | 0.00 | 0.00 | 83 | 1011.3 |
| 20260506234530 | 0 | 0.0 | 0.0 | 0.00 | 0.00 | 0.00 | 1011.4 | ||
| 20260506234027 | 0 | 0.0 | 0.0 | 0.00 | 0.00 | 0.00 | 1011.5 | ||
| 20260506233524 | 61 | 351 | 3.5 | 3.5 | 0.00 | 0.00 | 0.00 | 84 | 1011.2 |
| 20260506233021 | 61 | 351 | 3.5 | 3.5 | 0.00 | 0.00 | 0.00 | 84 | 1011.3 |
| 20260506232517 | 61 | 68 | 1.7 | 1.7 | 0.00 | 0.00 | 0.00 | 87 | 1011.3 |
| 20260506232012 | 61 | 268 | 1.7 | 2.6 | 0.00 | 0.00 | 0.00 | 85 | 1011.3 |